Time,TemperatureF,DewpointF,PressureIn,WindDirection,WindDirectionDegrees,WindSpeedMPH,WindSpeedGustMPH,Humidity,HourlyPrecipIn,Conditions,Clouds,dailyrainin,SoftwareType,DateUTC
2013-09-11 00:01:00,58.8,59.0,30.10,NNE,22,0.0,0.0,100,0.00,,,0.00,Rainwise IP-100,2013-09-11 04:01:00,
2013-09-11 00:06:00,58.8,59.0,30.10,NNE,22,2.3,3.0,100,0.00,,,0.00,Rainwise IP-100,2013-09-11 04:06:00,
2013-09-11 00:11:00,58.5,59.0,30.10,NNW,337,1.6,2.0,100,0.00,,,0.00,Rainwise IP-100,2013-09-11 04:11:00,
2013-09-11 00:16:00,58.3,58.0,30.11,NW,315,2.1,2.1,100,0.00,,,0.00,Rainwise IP-100,2013-09-11 04:16:00,
2013-09-11 00:21:00,58.1,58.0,30.11,NNW,337,2.3,3.0,100,0.00,,,0.00,Rainwise IP-100,2013-09-11 04:21:00,
2013-09-11 00:26:00,58.1,58.0,30.11,WNW,292,0.0,3.0,100,0.00,,,0.00,Rainwise IP-100,2013-09-11 04:26:00,
2013-09-11 00:31:00,58.0,58.0,30.11,NNW,337,2.6,3.0,100,0.00,,,0.00,Rainwise IP-100,2013-09-11 04:31:00,
2013-09-11 00:36:00,57.8,57.0,30.11,NNW,337,2.1,3.0,100,0.00,,,0.00,Rainwise IP-100,2013-09-11 04:36:00,
2013-09-11 00:41:00,57.8,57.0,30.11,NNW,337,1.2,2.0,100,0.00,,,0.00,Rainwise IP-100,2013-09-11 04:41:00,
2013-09-11 00:46:00,57.8,57.0,30.10,NNW,337,0.0,2.0,100,0.00,,,0.00,Rainwise IP-100,2013-09-11 04:46:00,
2013-09-11 00:51:00,57.7,57.0,30.11,NNW,337,0.0,1.0,100,0.00,,,0.00,Rainwise IP-100,2013-09-11 04:51:00,
2013-09-11 00:56:00,57.7,57.0,30.10,ENE,67,0.0,0.0,100,0.00,,,0.00,Rainwise IP-100,2013-09-11 04:56:00,
2013-09-11 01:01:00,57.8,57.0,30.10,ENE,67,0.0,0.0,100,0.00,,,0.00,Rainwise IP-100,2013-09-11 05:01:00,
2013-09-11 01:06:00,57.9,58.0,30.10,ENE,67,1.2,2.0,100,0.00,,,0.00,Rainwise IP-100,2013-09-11 05:06:00,
2013-09-11 01:11:00,57.9,58.0,30.10,NE,45,0.0,3.0,100,0.00,,,0.00,Rainwise IP-100,2013-09-11 05:11:00,
2013-09-11 01:16:00,57.8,57.0,30.10,NNW,337,1.6,1.6,100,0.00,,,0.00,Rainwise IP-100,2013-09-11 05:16:00,
2013-09-11 01:21:00,57.7,57.0,30.10,NNE,22,0.0,2.0,100,0.00,,,0.00,Rainwise IP-100,2013-09-11 05:21:00,
2013-09-11 01:26:00,57.6,57.0,30.09,SSE,157,2.1,2.1,100,0.00,,,0.00,Rainwise IP-100,2013-09-11 05:26:00,
2013-09-11 01:31:00,57.6,57.0,30.09,SE,135,2.1,2.1,100,0.00,,,0.00,Rainwise IP-100,2013-09-11 05:31:00,
2013-09-11 01:36:00,57.6,57.0,30.09,ESE,112,2.1,3.0,100,0.00,,,0.00,Rainwise IP-100,2013-09-11 05:36:00,
2013-09-11 01:41:00,57.5,57.0,30.10,East,90,0.0,3.0,100,0.00,,,0.00,Rainwise IP-100,2013-09-11 05:41:00,
2013-09-11 01:46:00,57.4,57.0,30.09,SSE,157,2.3,2.3,100,0.00,,,0.00,Rainwise IP-100,2013-09-11 05:46:00,
2013-09-11 01:51:00,57.4,57.0,30.09,SSW,202,1.4,3.0,100,0.00,,,0.00,Rainwise IP-100,2013-09-11 05:51:00,
2013-09-11 01:56:00,57.4,57.0,30.09,South,180,0.0,4.0,100,0.00,,,0.00,Rainwise IP-100,2013-09-11 05:56:00,
2013-09-11 02:01:00,57.5,57.0,30.09,SSE,157,1.9,4.0,100,0.00,,,0.00,Rainwise IP-100,2013-09-11 06:01:00,
2013-09-11 02:06:00,57.6,57.0,30.09,South,180,3.0,4.0,100,0.00,,,0.00,Rainwise IP-100,2013-09-11 06:06:00,
2013-09-11 02:11:00,57.8,57.0,30.09,South,180,1.6,3.0,100,0.00,,,0.00,Rainwise IP-100,2013-09-11 06:11:00,
2013-09-11 02:16:00,57.9,58.0,30.09,SSW,202,0.0,2.0,100,0.00,,,0.00,Rainwise IP-100,2013-09-11 06:16:00,
2013-09-11 02:21:00,58.0,58.0,30.09,SSE,157,0.0,1.0,100,0.00,,,0.00,Rainwise IP-100,2013-09-11 06:21:00,
2013-09-11 02:26:00,58.1,58.0,30.08,SSE,157,1.6,2.0,100,0.00,,,0.00,Rainwise IP-100,2013-09-11 06:26:00,
2013-09-11 02:31:00,58.1,58.0,30.08,SSE,157,2.1,2.1,100,0.00,,,0.00,Rainwise IP-100,2013-09-11 06:31:00,
2013-09-11 02:36:00,58.1,58.0,30.08,SSE,157,0.0,2.0,100,0.00,,,0.00,Rainwise IP-100,2013-09-11 06:36:00,
2013-09-11 02:41:00,58.1,58.0,30.08,SSE,157,2.6,2.6,100,0.00,,,0.00,Rainwise IP-100,2013-09-11 06:41:00,
2013-09-11 02:46:00,57.9,58.0,30.08,SSE,157,0.0,3.0,100,0.00,,,0.00,Rainwise IP-100,2013-09-11 06:46:00,
2013-09-11 02:51:00,57.8,57.0,30.08,SSE,157,0.0,0.0,100,0.00,,,0.00,Rainwise IP-100,2013-09-11 06:51:00,
2013-09-11 02:56:00,58.0,58.0,30.08,SSE,157,1.2,1.2,100,0.00,,,0.00,Rainwise IP-100,2013-09-11 06:56:00,
2013-09-11 03:01:00,58.1,58.0,30.08,SSE,157,1.6,2.0,100,0.00,,,0.00,Rainwise IP-100,2013-09-11 07:01:00,
2013-09-11 03:06:00,58.1,58.0,30.08,SSE,157,1.4,2.0,100,0.00,,,0.00,Rainwise IP-100,2013-09-11 07:06:00,
2013-09-11 03:11:00,58.0,58.0,30.08,SSE,157,1.4,2.0,100,0.00,,,0.00,Rainwise IP-100,2013-09-11 07:11:00,
2013-09-11 03:16:00,58.0,58.0,30.08,ESE,112,2.1,2.1,100,0.00,,,0.00,Rainwise IP-100,2013-09-11 07:16:00,
2013-09-11 03:21:00,58.0,58.0,30.08,SSE,157,0.0,3.0,100,0.00,,,0.00,Rainwise IP-100,2013-09-11 07:21:00,
2013-09-11 03:26:00,58.0,58.0,30.08,SSE,157,3.3,3.3,100,0.00,,,0.00,Rainwise IP-100,2013-09-11 07:26:00,
2013-09-11 03:31:00,57.9,58.0,30.08,SE,135,0.0,3.0,100,0.00,,,0.00,Rainwise IP-100,2013-09-11 07:31:00,
2013-09-11 03:36:00,57.7,57.0,30.08,East,90,2.1,3.0,100,0.00,,,0.00,Rainwise IP-100,2013-09-11 07:36:00,
2013-09-11 03:41:00,57.3,57.0,30.08,ESE,112,2.3,3.0,100,0.00,,,0.00,Rainwise IP-100,2013-09-11 07:41:00,
2013-09-11 03:46:00,56.8,56.0,30.08,SSE,157,1.9,5.0,100,0.00,,,0.00,Rainwise IP-100,2013-09-11 07:46:00,
2013-09-11 03:51:00,56.6,56.0,30.08,South,180,2.6,3.0,100,0.00,,,0.00,Rainwise IP-100,2013-09-11 07:51:00,
2013-09-11 03:56:00,56.5,56.0,30.08,South,180,0.0,2.0,100,0.00,,,0.00,Rainwise IP-100,2013-09-11 07:56:00,
2013-09-11 04:01:00,56.6,56.0,30.08,SSE,157,0.0,1.0,100,0.00,,,0.00,Rainwise IP-100,2013-09-11 08:01:00,
2013-09-11 04:06:00,56.7,56.0,30.08,NNW,337,1.4,2.0,100,0.00,,,0.00,Rainwise IP-100,2013-09-11 08:06:00,
2013-09-11 04:11:00,56.8,56.0,30.08,NNW,337,0.0,2.0,100,0.00,,,0.00,Rainwise IP-100,2013-09-11 08:11:00,
2013-09-11 04:16:00,56.8,56.0,30.09,NNW,337,1.4,2.0,100,0.00,,,0.00,Rainwise IP-100,2013-09-11 08:16:00,
2013-09-11 04:21:00,56.7,56.0,30.09,NNW,337,1.6,1.6,100,0.00,,,0.00,Rainwise IP-100,2013-09-11 08:21:00,
2013-09-11 04:26:00,56.7,56.0,30.08,NNW,337,0.0,2.0,100,0.00,,,0.00,Rainwise IP-100,2013-09-11 08:26:00,
2013-09-11 04:31:00,56.7,56.0,30.08,WSW,247,0.0,1.0,100,0.00,,,0.00,Rainwise IP-100,2013-09-11 08:31:00,
2013-09-11 04:36:00,56.8,56.0,30.09,WSW,247,0.0,0.0,100,0.00,,,0.00,Rainwise IP-100,2013-09-11 08:36:00,
2013-09-11 04:41:00,57.0,57.0,30.09,WSW,247,0.0,0.0,100,0.00,,,0.00,Rainwise IP-100,2013-09-11 08:41:00,
2013-09-11 04:46:00,57.2,57.0,30.09,NNW,337,0.0,2.0,100,0.00,,,0.00,Rainwise IP-100,2013-09-11 08:46:00,
2013-09-11 04:51:00,57.2,57.0,30.09,NNW,337,0.0,2.0,100,0.00,,,0.00,Rainwise IP-100,2013-09-11 08:51:00,
2013-09-11 04:56:00,57.2,57.0,30.08,NNW,337,0.0,1.0,100,0.00,,,0.00,Rainwise IP-100,2013-09-11 08:56:00,
2013-09-11 05:01:00,57.2,57.0,30.08,NNW,337,1.2,1.2,100,0.00,,,0.00,Rainwise IP-100,2013-09-11 09:01:00,
2013-09-11 05:06:00,57.2,57.0,30.08,West,270,0.0,1.0,100,0.00,,,0.00,Rainwise IP-100,2013-09-11 09:06:00,
2013-09-11 05:11:00,57.2,57.0,30.07,SSE,157,3.3,3.3,100,0.00,,,0.00,Rainwise IP-100,2013-09-11 09:11:00,
2013-09-11 05:16:00,57.3,57.0,30.08,SSW,202,0.0,3.0,100,0.00,,,0.00,Rainwise IP-100,2013-09-11 09:16:00,
2013-09-11 05:21:00,57.6,57.0,30.08,SSE,157,1.9,3.0,100,0.00,,,0.00,Rainwise IP-100,2013-09-11 09:21:00,
2013-09-11 05:26:00,57.8,57.0,30.06,SE,135,2.6,3.0,100,0.00,,,0.00,Rainwise IP-100,2013-09-11 09:26:00,
2013-09-11 05:31:00,57.9,58.0,30.06,ENE,67,0.0,3.0,100,0.00,,,0.00,Rainwise IP-100,2013-09-11 09:31:00,
2013-09-11 05:36:00,57.7,57.0,30.06,SE,135,3.3,4.0,100,0.00,,,0.00,Rainwise IP-100,2013-09-11 09:36:00,
2013-09-11 05:41:00,57.4,57.0,30.05,SSE,157,4.2,5.0,100,0.00,,,0.00,Rainwise IP-100,2013-09-11 09:41:00,
2013-09-11 05:46:00,57.3,57.0,30.04,SSE,157,2.6,4.0,100,0.00,,,0.00,Rainwise IP-100,2013-09-11 09:46:00,
2013-09-11 05:51:00,57.4,57.0,30.04,South,180,2.3,5.0,100,0.00,,,0.00,Rainwise IP-100,2013-09-11 09:51:00,
2013-09-11 05:56:00,57.4,57.0,30.03,SSE,157,4.4,4.4,100,0.00,,,0.00,Rainwise IP-100,2013-09-11 09:56:00,
2013-09-11 06:01:00,57.5,57.0,30.04,NNW,337,2.3,4.0,100,0.00,,,0.00,Rainwise IP-100,2013-09-11 10:01:00,
2013-09-11 06:06:00,57.6,57.0,30.05,NNW,337,2.6,3.0,100,0.00,,,0.00,Rainwise IP-100,2013-09-11 10:06:00,
2013-09-11 06:11:00,57.7,57.0,30.04,ENE,67,0.0,4.0,100,0.00,,,0.00,Rainwise IP-100,2013-09-11 10:11:00,
2013-09-11 06:16:00,57.9,58.0,30.04,East,90,0.0,3.0,100,0.00,,,0.00,Rainwise IP-100,2013-09-11 10:16:00,
2013-09-11 06:21:00,58.1,58.0,30.05,NNE,22,5.1,5.1,100,0.00,,,0.00,Rainwise IP-100,2013-09-11 10:21:00,
2013-09-11 06:26:00,58.2,58.0,30.06,NNW,337,5.8,6.0,100,0.00,,,0.00,Rainwise IP-100,2013-09-11 10:26:00,
2013-09-11 06:31:00,58.2,58.0,30.06,NNW,337,4.4,7.0,100,0.00,,,0.00,Rainwise IP-100,2013-09-11 10:31:00,
2013-09-11 06:36:00,57.8,57.0,30.08,NNW,337,6.8,9.0,100,0.00,,,0.00,Rainwise IP-100,2013-09-11 10:36:00,
2013-09-11 06:41:00,57.5,57.0,30.07,NNE,22,0.0,7.0,100,0.00,,,0.00,Rainwise IP-100,2013-09-11 10:41:00,
2013-09-11 06:46:00,57.5,57.0,30.07,NNE,22,0.0,4.0,100,0.00,,,0.00,Rainwise IP-100,2013-09-11 10:46:00,
2013-09-11 06:51:00,57.7,57.0,30.07,NNW,337,2.1,3.0,100,0.00,,,0.00,Rainwise IP-100,2013-09-11 10:51:00,
2013-09-11 06:56:00,57.9,58.0,30.07,NNE,22,0.0,2.0,100,0.00,,,0.00,Rainwise IP-100,2013-09-11 10:56:00,
2013-09-11 07:01:00,57.9,58.0,30.07,NE,45,1.4,2.0,100,0.00,,,0.00,Rainwise IP-100,2013-09-11 11:01:00,
2013-09-11 07:06:00,57.9,58.0,30.08,WNW,292,2.3,2.3,100,0.00,,,0.00,Rainwise IP-100,2013-09-11 11:06:00,
2013-09-11 07:11:00,57.9,58.0,30.07,WNW,292,0.0,2.0,100,0.00,,,0.00,Rainwise IP-100,2013-09-11 11:11:00,
2013-09-11 07:16:00,58.1,58.0,30.07,WNW,292,0.0,0.0,100,0.00,,,0.00,Rainwise IP-100,2013-09-11 11:16:00,
2013-09-11 07:21:00,58.2,58.0,30.07,WNW,292,1.2,1.2,100,0.00,,,0.00,Rainwise IP-100,2013-09-11 11:21:00,
2013-09-11 07:26:00,58.4,58.0,30.07,WNW,292,0.0,1.0,100,0.00,,,0.00,Rainwise IP-100,2013-09-11 11:26:00,
2013-09-11 07:31:00,58.5,59.0,30.07,WNW,292,1.6,1.6,100,0.00,,,0.00,Rainwise IP-100,2013-09-11 11:31:00,
2013-09-11 07:36:00,58.7,59.0,30.07,WNW,292,0.0,1.0,100,0.00,,,0.00,Rainwise IP-100,2013-09-11 11:36:00,
2013-09-11 07:41:00,59.0,59.0,30.06,WNW,292,0.0,1.0,100,0.00,,,0.00,Rainwise IP-100,2013-09-11 11:41:00,
2013-09-11 07:46:00,59.2,59.0,30.06,WNW,292,0.0,1.0,100,0.00,,,0.00,Rainwise IP-100,2013-09-11 11:46:00,
2013-09-11 07:51:00,59.4,59.0,30.07,WNW,292,0.0,0.0,100,0.00,,,0.00,Rainwise IP-100,2013-09-11 11:51:00,
2013-09-11 07:56:00,59.5,59.0,30.07,NNW,337,1.4,2.0,100,0.00,,,0.00,Rainwise IP-100,2013-09-11 11:56:00,
2013-09-11 08:01:00,59.3,59.0,30.07,NNE,22,1.9,3.0,100,0.00,,,0.00,Rainwise IP-100,2013-09-11 12:01:00,
2013-09-11 08:06:00,59.2,59.0,30.07,NNW,337,2.1,2.1,100,0.00,,,0.00,Rainwise IP-100,2013-09-11 12:06:00,
2013-09-11 08:11:00,59.5,59.0,30.07,NNW,337,0.0,3.0,100,0.00,,,0.00,Rainwise IP-100,2013-09-11 12:11:00,
2013-09-11 08:16:00,59.8,59.0,30.06,NW,315,1.6,3.0,100,0.00,,,0.00,Rainwise IP-100,2013-09-11 12:16:00,
2013-09-11 08:21:00,59.7,59.0,30.06,NNW,337,1.2,2.0,100,0.00,,,0.00,Rainwise IP-100,2013-09-11 12:21:00,
2013-09-11 08:26:00,59.8,59.0,30.06,NNE,22,2.3,3.0,100,0.00,,,0.00,Rainwise IP-100,2013-09-11 12:26:00,
2013-09-11 08:31:00,59.7,59.0,30.06,NNE,22,2.6,4.0,100,0.00,,,0.00,Rainwise IP-100,2013-09-11 12:31:00,
2013-09-11 08:36:00,59.5,59.0,30.07,NNW,337,3.3,4.0,100,0.00,,,0.00,Rainwise IP-100,2013-09-11 12:36:00,
2013-09-11 08:41:00,59.5,59.0,30.07,NNE,22,1.6,4.0,100,0.00,,,0.00,Rainwise IP-100,2013-09-11 12:41:00,
2013-09-11 08:46:00,59.5,59.0,30.07,NNE,22,0.0,3.0,100,0.00,,,0.00,Rainwise IP-100,2013-09-11 12:46:00,
2013-09-11 08:51:00,59.5,59.0,30.07,NNW,337,1.2,4.0,100,0.00,,,0.00,Rainwise IP-100,2013-09-11 12:51:00,
2013-09-11 08:56:00,59.6,59.0,30.07,NNE,22,0.0,3.0,100,0.00,,,0.00,Rainwise IP-100,2013-09-11 12:56:00,
2013-09-11 09:01:00,59.9,60.0,30.07,NNE,22,0.0,2.0,100,0.00,,,0.00,Rainwise IP-100,2013-09-11 13:01:00,
2013-09-11 09:06:00,59.9,60.0,30.07,ENE,67,0.0,3.0,100,0.00,,,0.00,Rainwise IP-100,2013-09-11 13:06:00,
2013-09-11 09:11:00,60.0,60.0,30.07,ENE,67,0.0,1.0,100,0.00,,,0.00,Rainwise IP-100,2013-09-11 13:11:00,
2013-09-11 09:16:00,60.3,60.0,30.06,NNE,22,1.6,3.0,100,0.00,,,0.00,Rainwise IP-100,2013-09-11 13:16:00,
2013-09-11 09:21:00,60.4,60.0,30.07,NW,315,2.1,3.0,100,0.00,,,0.00,Rainwise IP-100,2013-09-11 13:21:00,
2013-09-11 09:26:00,60.4,60.0,30.07,NNW,337,4.2,4.2,100,0.00,,,0.00,Rainwise IP-100,2013-09-11 13:26:00,
2013-09-11 09:31:00,60.4,60.0,30.06,NNW,337,1.6,4.0,100,0.00,,,0.00,Rainwise IP-100,2013-09-11 13:31:00,
2013-09-11 09:36:00,60.6,60.0,30.07,NNW,337,2.6,2.6,100,0.00,,,0.00,Rainwise IP-100,2013-09-11 13:36:00,
2013-09-11 09:41:00,61.5,61.0,30.06,NNW,337,3.7,3.7,100,0.00,,,0.00,Rainwise IP-100,2013-09-11 13:41:00,
2013-09-11 09:46:00,61.8,61.0,30.06,NNW,337,2.1,5.0,99,0.00,,,0.00,Rainwise IP-100,2013-09-11 13:46:00,
2013-09-11 09:51:00,61.8,61.0,30.06,NNW,337,3.7,5.0,99,0.00,,,0.00,Rainwise IP-100,2013-09-11 13:51:00,
2013-09-11 09:56:00,62.0,61.0,30.06,NNW,337,4.2,5.0,98,0.00,,,0.00,Rainwise IP-100,2013-09-11 13:56:00,
2013-09-11 10:01:00,61.8,61.0,30.06,NNW,337,3.5,5.0,98,0.00,,,0.00,Rainwise IP-100,2013-09-11 14:01:00,
2013-09-11 10:06:00,61.7,61.0,30.06,NNW,337,3.7,5.0,98,0.00,,,0.00,Rainwise IP-100,2013-09-11 14:06:00,
2013-09-11 10:11:00,62.0,61.0,30.06,NW,315,0.0,4.0,98,0.00,,,0.00,Rainwise IP-100,2013-09-11 14:11:00,
2013-09-11 10:16:00,62.6,61.0,30.05,NW,315,2.3,3.0,97,0.00,,,0.00,Rainwise IP-100,2013-09-11 14:16:00,
2013-09-11 10:21:00,63.4,62.0,30.05,NNW,337,2.8,3.0,96,0.00,,,0.00,Rainwise IP-100,2013-09-11 14:21:00,
2013-09-11 10:26:00,64.0,62.0,30.04,NNE,22,3.5,3.5,95,0.00,,,0.00,Rainwise IP-100,2013-09-11 14:26:00,
2013-09-11 10:31:00,64.1,62.0,30.05,NW,315,3.7,5.0,93,0.00,,,0.00,Rainwise IP-100,2013-09-11 14:31:00,
2013-09-11 10:36:00,63.3,61.0,30.05,NNW,337,4.0,6.0,93,0.00,,,0.00,Rainwise IP-100,2013-09-11 14:36:00,
2013-09-11 10:41:00,62.6,61.0,30.04,NNW,337,1.6,4.0,94,0.00,,,0.00,Rainwise IP-100,2013-09-11 14:41:00,
2013-09-11 10:46:00,63.3,61.0,30.04,NNW,337,0.0,2.0,94,0.00,,,0.00,Rainwise IP-100,2013-09-11 14:46:00,
2013-09-11 10:51:00,64.8,62.0,30.04,NNW,337,1.6,3.0,94,0.00,,,0.00,Rainwise IP-100,2013-09-11 14:51:00,
2013-09-11 10:56:00,65.9,63.0,30.04,NNE,22,1.2,3.0,92,0.00,,,0.00,Rainwise IP-100,2013-09-11 14:56:00,
2013-09-11 11:01:00,66.9,64.0,30.04,North,360,0.0,2.0,91,0.00,,,0.00,Rainwise IP-100,2013-09-11 15:01:00,
2013-09-11 11:03:00,67.3,64.0,30.04,NE,45,3.7,4.0,90,0.00,,,0.00,Rainwise IP-100,2013-09-11 15:03:00,
2013-09-11 11:04:00,67.3,64.0,30.04,NE,45,4.4,4.4,90,0.00,,,0.00,Rainwise IP-100,2013-09-11 15:04:00,
2013-09-11 11:09:00,67.5,64.0,30.03,NNE,22,0.0,4.0,88,0.00,,,0.00,Rainwise IP-100,2013-09-11 15:09:00,
2013-09-11 11:14:00,67.7,63.0,30.04,NNE,22,4.9,5.0,87,0.00,,,0.00,Rainwise IP-100,2013-09-11 15:14:00,
2013-09-11 11:19:00,68.1,63.0,30.04,NNW,337,3.5,5.0,85,0.00,,,0.00,Rainwise IP-100,2013-09-11 15:19:00,
2013-09-11 11:24:00,67.3,63.0,30.04,NNW,337,0.0,4.0,86,0.00,,,0.00,Rainwise IP-100,2013-09-11 15:24:00,
2013-09-11 11:29:00,67.0,63.0,30.03,NNE,22,2.3,4.0,88,0.00,,,0.00,Rainwise IP-100,2013-09-11 15:29:00,
2013-09-11 11:34:00,67.5,64.0,30.03,NNE,22,2.3,4.0,90,0.00,,,0.00,Rainwise IP-100,2013-09-11 15:34:00,
2013-09-11 11:39:00,68.1,65.0,30.03,NNW,337,1.2,4.0,90,0.00,,,0.00,Rainwise IP-100,2013-09-11 15:39:00,
2013-09-11 11:44:00,68.5,65.0,30.03,ENE,67,3.3,3.3,88,0.00,,,0.00,Rainwise IP-100,2013-09-11 15:44:00,
2013-09-11 11:49:00,68.5,64.0,30.03,ENE,67,2.6,4.0,86,0.00,,,0.00,Rainwise IP-100,2013-09-11 15:49:00,
2013-09-11 11:54:00,68.1,64.0,30.02,SE,135,5.8,6.0,88,0.00,,,0.00,Rainwise IP-100,2013-09-11 15:54:00,
2013-09-11 11:59:00,67.9,65.0,30.01,NW,315,1.2,8.0,91,0.00,,,0.00,Rainwise IP-100,2013-09-11 15:59:00,
2013-09-11 12:04:00,68.6,66.0,30.02,NE,45,3.5,5.0,93,0.00,,,0.00,Rainwise IP-100,2013-09-11 16:04:00,
2013-09-11 12:09:00,69.3,66.0,30.01,NE,45,2.1,4.0,91,0.00,,,0.00,Rainwise IP-100,2013-09-11 16:09:00,
2013-09-11 12:14:00,70.1,66.0,30.01,North,360,5.1,5.1,89,0.00,,,0.00,Rainwise IP-100,2013-09-11 16:14:00,
2013-09-11 12:19:00,70.5,66.0,30.01,North,360,4.0,5.0,86,0.00,,,0.00,Rainwise IP-100,2013-09-11 16:19:00,
2013-09-11 12:24:00,69.6,64.0,30.01,NNE,22,3.5,5.0,84,0.00,,,0.00,Rainwise IP-100,2013-09-11 16:24:00,
2013-09-11 12:29:00,69.2,65.0,30.00,ENE,67,3.0,4.0,87,0.00,,,0.00,Rainwise IP-100,2013-09-11 16:29:00,
2013-09-11 12:34:00,69.9,66.0,30.00,NNE,22,3.5,7.0,86,0.00,,,0.00,Rainwise IP-100,2013-09-11 16:34:00,
2013-09-11 12:39:00,69.6,65.0,30.00,NW,315,1.9,7.0,85,0.00,,,0.00,Rainwise IP-100,2013-09-11 16:39:00,
2013-09-11 12:44:00,69.2,64.0,30.00,NNW,337,3.7,7.0,85,0.00,,,0.00,Rainwise IP-100,2013-09-11 16:44:00,
2013-09-11 12:49:00,69.3,65.0,30.00,NNE,22,3.0,6.0,86,0.00,,,0.00,Rainwise IP-100,2013-09-11 16:49:00,
2013-09-11 12:54:00,68.8,64.0,30.00,NE,45,3.5,6.0,86,0.00,,,0.00,Rainwise IP-100,2013-09-11 16:54:00,
2013-09-11 12:59:00,68.5,64.0,30.00,NNW,337,3.0,6.0,85,0.00,,,0.00,Rainwise IP-100,2013-09-11 16:59:00,
2013-09-11 13:04:00,69.0,64.0,30.00,NNW,337,4.0,7.0,85,0.00,,,0.00,Rainwise IP-100,2013-09-11 17:04:00,
2013-09-11 13:09:00,68.6,64.0,30.00,NNW,337,3.7,7.0,85,0.00,,,0.00,Rainwise IP-100,2013-09-11 17:09:00,
2013-09-11 13:14:00,68.1,63.0,30.00,WNW,292,3.0,5.0,85,0.00,,,0.00,Rainwise IP-100,2013-09-11 17:14:00,
2013-09-11 13:19:00,68.6,64.0,30.00,NW,315,5.8,6.0,85,0.00,,,0.00,Rainwise IP-100,2013-09-11 17:19:00,
2013-09-11 13:24:00,69.1,64.0,30.00,NNW,337,4.7,6.0,86,0.00,,,0.00,Rainwise IP-100,2013-09-11 17:24:00,
2013-09-11 13:29:00,69.8,65.0,30.00,NNW,337,3.7,5.0,86,0.00,,,0.00,Rainwise IP-100,2013-09-11 17:29:00,
2013-09-11 13:34:00,70.4,65.0,30.00,NNE,22,3.7,4.0,84,0.00,,,0.00,Rainwise IP-100,2013-09-11 17:34:00,
2013-09-11 13:39:00,71.0,65.0,30.00,NNW,337,5.1,5.1,82,0.00,,,0.00,Rainwise IP-100,2013-09-11 17:39:00,
2013-09-11 13:44:00,71.2,65.0,30.00,NNW,337,4.2,6.0,81,0.00,,,0.00,Rainwise IP-100,2013-09-11 17:44:00,
2013-09-11 13:49:00,70.9,65.0,29.99,ENE,67,1.4,4.0,81,0.00,,,0.00,Rainwise IP-100,2013-09-11 17:49:00,
2013-09-11 13:54:00,70.1,64.0,30.00,ENE,67,2.3,5.0,82,0.00,,,0.00,Rainwise IP-100,2013-09-11 17:54:00,
2013-09-11 13:59:00,69.7,64.0,29.99,SSE,157,0.0,6.0,84,0.00,,,0.00,Rainwise IP-100,2013-09-11 17:59:00,
2013-09-11 14:04:00,70.3,65.0,29.99,SE,135,2.3,6.0,85,0.00,,,0.00,Rainwise IP-100,2013-09-11 18:04:00,
2013-09-11 14:09:00,70.9,66.0,29.99,ENE,67,4.4,6.0,86,0.00,,,0.00,Rainwise IP-100,2013-09-11 18:09:00,
2013-09-11 14:14:00,70.8,66.0,29.99,SSE,157,1.9,7.0,86,0.00,,,0.00,Rainwise IP-100,2013-09-11 18:14:00,
2013-09-11 14:19:00,70.5,66.0,29.98,ENE,67,3.5,6.0,85,0.00,,,0.00,Rainwise IP-100,2013-09-11 18:19:00,
2013-09-11 14:24:00,71.0,66.0,29.98,SSE,157,2.3,4.0,85,0.00,,,0.00,Rainwise IP-100,2013-09-11 18:24:00,
2013-09-11 14:29:00,71.6,66.0,29.98,ENE,67,2.1,4.0,85,0.00,,,0.00,Rainwise IP-100,2013-09-11 18:29:00,
2013-09-11 14:34:00,72.2,67.0,29.98,East,90,1.9,5.0,84,0.00,,,0.00,Rainwise IP-100,2013-09-11 18:34:00,
2013-09-11 14:39:00,72.7,67.0,29.98,ENE,67,2.8,6.0,83,0.00,,,0.00,Rainwise IP-100,2013-09-11 18:39:00,
2013-09-11 14:44:00,72.3,66.0,29.98,NNE,22,3.0,5.0,80,0.00,,,0.00,Rainwise IP-100,2013-09-11 18:44:00,
2013-09-11 14:49:00,71.7,65.0,29.97,ENE,67,3.7,3.7,79,0.00,,,0.00,Rainwise IP-100,2013-09-11 18:49:00,
2013-09-11 14:54:00,71.7,65.0,29.98,ENE,67,3.0,3.0,80,0.00,,,0.00,Rainwise IP-100,2013-09-11 18:54:00,
2013-09-11 14:59:00,72.0,65.0,29.97,NNE,22,1.9,4.0,80,0.00,,,0.00,Rainwise IP-100,2013-09-11 18:59:00,
2013-09-11 15:04:00,72.3,65.0,29.97,ENE,67,3.3,4.0,79,0.00,,,0.00,Rainwise IP-100,2013-09-11 19:04:00,
2013-09-11 15:09:00,71.9,65.0,29.97,ENE,67,4.0,4.0,78,0.00,,,0.00,Rainwise IP-100,2013-09-11 19:09:00,
2013-09-11 15:14:00,71.6,65.0,29.97,ENE,67,1.9,6.0,80,0.00,,,0.00,Rainwise IP-100,2013-09-11 19:14:00,
2013-09-11 15:19:00,71.9,65.0,29.97,ENE,67,2.8,5.0,80,0.00,,,0.00,Rainwise IP-100,2013-09-11 19:19:00,
2013-09-11 15:24:00,71.6,65.0,29.96,ENE,67,2.6,4.0,81,0.00,,,0.00,Rainwise IP-100,2013-09-11 19:24:00,
2013-09-11 15:29:00,71.6,65.0,29.96,ENE,67,1.6,3.0,81,0.00,,,0.00,Rainwise IP-100,2013-09-11 19:29:00,
2013-09-11 15:34:00,72.4,66.0,29.96,ESE,112,1.9,3.0,80,0.00,,,0.00,Rainwise IP-100,2013-09-11 19:34:00,
2013-09-11 15:39:00,73.2,66.0,29.96,East,90,3.5,7.0,79,0.00,,,0.00,Rainwise IP-100,2013-09-11 19:39:00,
2013-09-11 15:44:00,72.8,66.0,29.96,NNE,22,3.7,6.0,80,0.00,,,0.00,Rainwise IP-100,2013-09-11 19:44:00,
2013-09-11 15:49:00,72.5,66.0,29.95,NNE,22,2.6,6.0,80,0.00,,,0.00,Rainwise IP-100,2013-09-11 19:49:00,
2013-09-11 15:54:00,72.8,66.0,29.95,NNW,337,1.6,4.0,80,0.00,,,0.00,Rainwise IP-100,2013-09-11 19:54:00,
2013-09-11 15:59:00,72.8,65.0,29.95,NNE,22,2.3,5.0,78,0.00,,,0.00,Rainwise IP-100,2013-09-11 19:59:00,
2013-09-11 16:04:00,72.4,65.0,29.95,NNE,22,2.6,6.0,78,0.00,,,0.00,Rainwise IP-100,2013-09-11 20:04:00,
2013-09-11 16:09:00,71.2,65.0,29.95,NNE,22,3.0,6.0,80,0.00,,,0.00,Rainwise IP-100,2013-09-11 20:09:00,
2013-09-11 16:14:00,71.0,65.0,29.95,ENE,67,3.0,3.0,81,0.00,,,0.00,Rainwise IP-100,2013-09-11 20:14:00,
2013-09-11 16:19:00,72.3,66.0,29.95,WNW,292,3.7,4.0,82,0.00,,,0.00,Rainwise IP-100,2013-09-11 20:19:00,
2013-09-11 16:24:00,74.3,68.0,29.95,ENE,67,1.6,6.0,81,0.00,,,0.00,Rainwise IP-100,2013-09-11 20:24:00,
2013-09-11 16:29:00,76.0,69.0,29.95,SSE,157,4.4,4.4,80,0.00,,,0.00,Rainwise IP-100,2013-09-11 20:29:00,
2013-09-11 16:34:00,77.3,70.0,29.94,North,360,2.8,6.0,79,0.00,,,0.00,Rainwise IP-100,2013-09-11 20:34:00,
2013-09-11 16:39:00,78.4,71.0,29.94,SSW,202,4.2,6.0,78,0.00,,,0.00,Rainwise IP-100,2013-09-11 20:39:00,
2013-09-11 16:44:00,79.6,72.0,29.94,WSW,247,4.7,7.0,78,0.00,,,0.00,Rainwise IP-100,2013-09-11 20:44:00,
2013-09-11 16:49:00,80.8,73.0,29.94,SSW,202,5.1,8.0,78,0.00,,,0.00,Rainwise IP-100,2013-09-11 20:49:00,
2013-09-11 16:54:00,81.2,73.0,29.94,WSW,247,0.0,6.0,77,0.00,,,0.00,Rainwise IP-100,2013-09-11 20:54:00,
2013-09-11 16:59:00,81.2,73.0,29.94,SSW,202,7.9,7.9,77,0.00,,,0.00,Rainwise IP-100,2013-09-11 20:59:00,
2013-09-11 17:04:00,80.8,72.0,29.94,NNW,337,0.0,9.0,76,0.00,,,0.00,Rainwise IP-100,2013-09-11 21:04:00,
2013-09-11 17:09:00,79.6,70.0,29.94,NNW,337,4.0,4.0,74,0.00,,,0.00,Rainwise IP-100,2013-09-11 21:09:00,
2013-09-11 17:14:00,78.2,69.0,29.93,NNW,337,2.3,7.0,74,0.00,,,0.00,Rainwise IP-100,2013-09-11 21:14:00,
2013-09-11 17:19:00,78.2,71.0,29.93,NNE,22,2.8,8.0,78,0.00,,,0.00,Rainwise IP-100,2013-09-11 21:19:00,
2013-09-11 17:24:00,77.1,69.0,29.94,NNE,22,3.3,6.0,77,0.00,,,0.00,Rainwise IP-100,2013-09-11 21:24:00,
2013-09-11 17:29:00,73.5,66.0,29.94,ENE,67,2.6,7.0,76,0.00,,,0.00,Rainwise IP-100,2013-09-11 21:29:00,
2013-09-11 17:34:00,71.3,64.0,29.93,SE,135,2.8,6.0,78,0.00,,,0.00,Rainwise IP-100,2013-09-11 21:34:00,
2013-09-11 17:39:00,70.2,64.0,29.94,ESE,112,4.2,6.0,81,0.00,,,0.00,Rainwise IP-100,2013-09-11 21:39:00,
2013-09-11 17:44:00,68.6,63.0,29.94,SSE,157,4.7,7.0,84,0.00,,,0.00,Rainwise IP-100,2013-09-11 21:44:00,
2013-09-11 17:49:00,67.5,63.0,29.94,SSE,157,0.0,5.0,87,0.00,,,0.00,Rainwise IP-100,2013-09-11 21:49:00,
2013-09-11 17:54:00,67.2,64.0,29.94,ESE,112,2.6,6.0,89,0.00,,,0.00,Rainwise IP-100,2013-09-11 21:54:00,
2013-09-11 17:59:00,66.7,63.0,29.93,ENE,67,1.2,5.0,89,0.00,,,0.00,Rainwise IP-100,2013-09-11 21:59:00,
2013-09-11 18:04:00,66.3,63.0,29.93,NNW,337,0.0,3.0,89,0.00,,,0.00,Rainwise IP-100,2013-09-11 22:04:00,
2013-09-11 18:09:00,66.3,63.0,29.93,NE,45,1.6,2.0,89,0.00,,,0.00,Rainwise IP-100,2013-09-11 22:09:00,
2013-09-11 18:14:00,65.9,62.0,29.93,NE,45,2.8,3.0,89,0.00,,,0.00,Rainwise IP-100,2013-09-11 22:14:00,
2013-09-11 18:19:00,65.1,61.0,29.93,NNW,337,1.6,4.0,89,0.00,,,0.00,Rainwise IP-100,2013-09-11 22:19:00,
2013-09-11 18:24:00,64.5,61.0,29.93,NNE,22,1.2,4.0,90,0.00,,,0.00,Rainwise IP-100,2013-09-11 22:24:00,
2013-09-11 18:29:00,63.8,60.0,29.93,NNW,337,0.0,4.0,90,0.00,,,0.00,Rainwise IP-100,2013-09-11 22:29:00,
2013-09-11 18:34:00,63.5,61.0,29.94,NNE,22,0.0,1.0,91,0.00,,,0.00,Rainwise IP-100,2013-09-11 22:34:00,
2013-09-11 18:39:00,63.8,61.0,29.93,SW,225,1.6,4.0,93,0.00,,,0.00,Rainwise IP-100,2013-09-11 22:39:00,
2013-09-11 18:44:00,64.6,62.0,29.93,NNE,22,1.4,3.0,94,0.00,,,0.00,Rainwise IP-100,2013-09-11 22:44:00,
2013-09-11 18:49:00,65.0,63.0,29.93,ESE,112,0.0,3.0,94,0.00,,,0.00,Rainwise IP-100,2013-09-11 22:49:00,
2013-09-11 18:54:00,65.8,63.0,29.93,WNW,292,2.3,3.0,94,0.00,,,0.00,Rainwise IP-100,2013-09-11 22:54:00,
2013-09-11 18:59:00,67.9,66.0,29.93,SSW,202,2.3,10.0,95,0.00,,,0.00,Rainwise IP-100,2013-09-11 22:59:00,
2013-09-11 19:04:00,71.8,69.0,29.93,WSW,247,1.9,7.0,94,0.00,,,0.00,Rainwise IP-100,2013-09-11 23:04:00,
2013-09-11 19:09:00,75.8,72.0,29.93,WSW,247,4.4,9.0,89,0.00,,,0.00,Rainwise IP-100,2013-09-11 23:09:00,
2013-09-11 19:14:00,78.0,72.0,29.93,WSW,247,0.0,9.0,84,0.00,,,0.00,Rainwise IP-100,2013-09-11 23:14:00,
2013-09-11 19:19:00,78.1,71.0,29.93,WSW,247,5.6,7.0,80,0.00,,,0.00,Rainwise IP-100,2013-09-11 23:19:00,
2013-09-11 19:24:00,76.4,69.0,29.93,WSW,247,1.2,6.0,77,0.00,,,0.00,Rainwise IP-100,2013-09-11 23:24:00,
2013-09-11 19:29:00,74.2,66.0,29.93,WSW,247,4.4,6.0,77,0.00,,,0.00,Rainwise IP-100,2013-09-11 23:29:00,
2013-09-11 19:34:00,74.4,68.0,29.93,WSW,247,4.4,6.0,81,0.00,,,0.00,Rainwise IP-100,2013-09-11 23:34:00,
2013-09-11 19:39:00,77.0,71.0,29.94,WSW,247,6.3,7.0,82,0.00,,,0.00,Rainwise IP-100,2013-09-11 23:39:00,
2013-09-11 19:44:00,79.3,72.0,29.93,WSW,247,1.6,12.0,79,0.00,,,0.00,Rainwise IP-100,2013-09-11 23:44:00,
2013-09-11 19:49:00,80.4,72.0,29.93,WNW,292,4.4,7.0,77,0.00,,,0.00,Rainwise IP-100,2013-09-11 23:49:00,
2013-09-11 19:54:00,80.7,72.0,29.93,WNW,292,3.3,10.0,75,0.00,,,0.00,Rainwise IP-100,2013-09-11 23:54:00,
2013-09-11 19:59:00,81.0,72.0,29.94,West,270,5.1,9.0,74,0.00,,,0.00,Rainwise IP-100,2013-09-11 23:59:00,
2013-09-11 20:04:00,80.8,71.0,29.94,WNW,292,6.5,7.0,74,0.00,,,0.00,Rainwise IP-100,2013-09-12 00:04:00,
2013-09-11 20:09:00,80.4,71.0,29.93,SW,225,2.6,10.0,74,0.00,,,0.00,Rainwise IP-100,2013-09-12 00:09:00,
2013-09-11 20:14:00,80.0,71.0,29.94,West,270,3.5,8.0,74,0.00,,,0.00,Rainwise IP-100,2013-09-12 00:14:00,
2013-09-11 20:19:00,79.8,70.0,29.94,SW,225,6.5,9.0,74,0.00,,,0.00,Rainwise IP-100,2013-09-12 00:19:00,
2013-09-11 20:24:00,79.6,71.0,29.95,WSW,247,4.7,9.0,75,0.00,,,0.00,Rainwise IP-100,2013-09-12 00:24:00,
2013-09-11 20:29:00,79.3,71.0,29.95,SSW,202,3.3,8.0,75,0.00,,,0.00,Rainwise IP-100,2013-09-12 00:29:00,
2013-09-11 20:34:00,79.3,71.0,29.95,SW,225,5.1,9.0,75,0.00,,,0.00,Rainwise IP-100,2013-09-12 00:34:00,
2013-09-11 20:39:00,79.3,71.0,29.95,WSW,247,4.4,9.0,75,0.00,,,0.00,Rainwise IP-100,2013-09-12 00:39:00,
2013-09-11 20:44:00,79.2,71.0,29.95,SW,225,4.7,10.0,75,0.00,,,0.00,Rainwise IP-100,2013-09-12 00:44:00,
2013-09-11 20:49:00,79.0,70.0,29.95,WSW,247,8.9,8.9,75,0.00,,,0.00,Rainwise IP-100,2013-09-12 00:49:00,
2013-09-11 20:54:00,78.8,70.0,29.95,WSW,247,5.4,11.0,75,0.00,,,0.00,Rainwise IP-100,2013-09-12 00:54:00,
2013-09-11 20:59:00,78.6,70.0,29.95,WSW,247,6.8,10.0,76,0.00,,,0.00,Rainwise IP-100,2013-09-12 00:59:00,
2013-09-11 21:04:00,78.6,70.0,29.95,SSW,202,4.7,12.0,76,0.00,,,0.00,Rainwise IP-100,2013-09-12 01:04:00,
2013-09-11 21:09:00,78.7,70.0,29.95,SW,225,4.4,9.0,76,0.00,,,0.00,Rainwise IP-100,2013-09-12 01:09:00,
2013-09-11 21:14:00,78.8,70.0,29.95,SSW,202,3.7,9.0,76,0.00,,,0.00,Rainwise IP-100,2013-09-12 01:14:00,
2013-09-11 21:19:00,78.8,70.0,29.95,WSW,247,7.9,11.0,75,0.00,,,0.00,Rainwise IP-100,2013-09-12 01:19:00,
2013-09-11 21:24:00,78.5,70.0,29.95,SW,225,4.4,11.0,75,0.00,,,0.00,Rainwise IP-100,2013-09-12 01:24:00,
2013-09-11 21:29:00,78.1,70.0,29.95,SSW,202,6.1,9.0,76,0.00,,,0.00,Rainwise IP-100,2013-09-12 01:29:00,
2013-09-11 21:34:00,77.7,69.0,29.95,SSW,202,4.4,11.0,76,0.00,,,0.00,Rainwise IP-100,2013-09-12 01:34:00,
2013-09-11 21:39:00,77.4,69.0,29.96,WSW,247,3.3,8.0,77,0.00,,,0.00,Rainwise IP-100,2013-09-12 01:39:00,
2013-09-11 21:44:00,77.4,70.0,29.97,WSW,247,5.8,11.0,78,0.00,,,0.00,Rainwise IP-100,2013-09-12 01:44:00,
2013-09-11 21:49:00,77.5,70.0,29.97,WSW,247,4.4,13.0,77,0.00,,,0.00,Rainwise IP-100,2013-09-12 01:49:00,
2013-09-11 21:54:00,77.3,69.0,29.98,WSW,247,14.2,17.0,76,0.00,,,0.00,Rainwise IP-100,2013-09-12 01:54:00,
2013-09-11 21:59:00,76.4,69.0,29.98,SW,225,16.1,23.0,77,0.00,,,0.00,Rainwise IP-100,2013-09-12 01:59:00,
2013-09-11 22:04:00,75.5,68.0,29.95,WSW,247,10.7,17.0,78,0.00,,,0.00,Rainwise IP-100,2013-09-12 02:04:00,
2013-09-11 22:09:00,75.4,68.0,29.96,WNW,292,3.7,14.0,79,0.00,,,0.00,Rainwise IP-100,2013-09-12 02:09:00,
2013-09-11 22:14:00,75.1,68.0,29.94,WNW,292,3.7,14.0,79,0.00,,,0.00,Rainwise IP-100,2013-09-12 02:14:00,
2013-09-11 22:19:00,74.4,68.0,29.94,SSW,202,4.9,12.0,80,0.00,,,0.00,Rainwise IP-100,2013-09-12 02:19:00,
2013-09-11 22:24:00,73.9,68.0,29.93,WSW,247,4.4,11.0,82,0.00,,,0.00,Rainwise IP-100,2013-09-12 02:24:00,
2013-09-11 22:29:00,73.7,68.0,29.93,SSW,202,3.7,13.0,83,0.00,,,0.00,Rainwise IP-100,2013-09-12 02:29:00,
2013-09-11 22:34:00,74.0,69.0,29.93,SSW,202,4.2,9.0,83,0.00,,,0.00,Rainwise IP-100,2013-09-12 02:34:00,
2013-09-11 22:39:00,75.0,69.0,29.93,SSW,202,5.6,10.0,81,0.00,,,0.00,Rainwise IP-100,2013-09-12 02:39:00,
2013-09-11 22:44:00,76.1,68.0,29.93,SW,225,3.7,8.0,78,0.00,,,0.00,Rainwise IP-100,2013-09-12 02:44:00,
2013-09-11 22:49:00,77.2,68.0,29.94,SSW,202,4.4,8.0,74,0.00,,,0.00,Rainwise IP-100,2013-09-12 02:49:00,
2013-09-11 22:54:00,77.5,68.0,29.95,SW,225,4.2,9.0,72,0.00,,,0.00,Rainwise IP-100,2013-09-12 02:54:00,
2013-09-11 22:59:00,77.0,67.0,29.94,WSW,247,3.3,10.0,72,0.00,,,0.00,Rainwise IP-100,2013-09-12 02:59:00,
2013-09-11 23:04:00,76.8,67.0,29.94,WSW,247,2.6,9.0,73,0.00,,,0.00,Rainwise IP-100,2013-09-12 03:04:00,
2013-09-11 23:09:00,76.8,67.0,29.94,WSW,247,4.4,9.0,72,0.00,,,0.00,Rainwise IP-100,2013-09-12 03:09:00,
2013-09-11 23:14:00,76.8,67.0,29.93,SSW,202,1.4,8.0,72,0.00,,,0.00,Rainwise IP-100,2013-09-12 03:14:00,
2013-09-11 23:19:00,76.9,67.0,29.93,WSW,247,2.1,8.0,71,0.00,,,0.00,Rainwise IP-100,2013-09-12 03:19:00,
2013-09-11 23:24:00,76.9,67.0,29.93,WSW,247,2.8,9.0,71,0.00,,,0.00,Rainwise IP-100,2013-09-12 03:24:00,
2013-09-11 23:29:00,76.8,66.0,29.94,WNW,292,2.3,9.0,71,0.00,,,0.00,Rainwise IP-100,2013-09-12 03:29:00,
2013-09-11 23:34:00,76.9,67.0,29.95,NNW,337,2.3,9.0,72,0.00,,,0.00,Rainwise IP-100,2013-09-12 03:34:00,
2013-09-11 23:39:00,77.0,67.0,29.95,WSW,247,3.0,9.0,72,0.00,,,0.00,Rainwise IP-100,2013-09-12 03:39:00,
2013-09-11 23:44:00,77.0,68.0,29.95,WSW,247,1.9,8.0,73,0.00,,,0.00,Rainwise IP-100,2013-09-12 03:44:00,
2013-09-11 23:49:00,77.2,67.0,29.96,WSW,247,4.2,10.0,72,0.00,,,0.00,Rainwise IP-100,2013-09-12 03:49:00,
2013-09-11 23:54:00,77.4,67.0,29.98,WSW,247,2.8,12.0,72,0.00,,,0.00,Rainwise IP-100,2013-09-12 03:54:00,
2013-09-11 23:59:00,77.2,67.0,29.98,West,270,12.1,14.0,72,0.00,,,0.00,Rainwise IP-100,2013-09-12 03:59:00,